Wind_Speed
7 12 10 6 4 2 5 5 12 11 10 15 10 29 25 18 19 21 21 19 18 15 16 20 27 32 32 33 32 35 39 35 37 35 34 32 31 29 27 25 24 23 22 22
6 13 4 5 6 5 5 8 7 11 15 16 12 34 33 23 29 26 26 25 21 15 9 10 21 26 29 33 37 37 38 36 41 40 36 29 35 31 29 27 26 25 25 25
7 2 7 8 5 15 9 7 9 15 18 10 13 16 13 10 18 20 24 26 20 21 18 12 10 22 30 33 37 37 39 39 41 40 37 28 29 27 27 28 28 28 27 27
3 3 9 9 5 9 9 4 10 17 15 6 12 10 18 9 18 21 11 14 16 16 15 13 10 15 26 33 36 39 40 39 40 43 43 38 32 24 29 36 33 31 29 29
6 7 9 6 7 5 8 6 15 17 16 11 2 5 11 13 16 16 12 10 12 13 14 16 14 20 28 32 35 38 39 39 40 45 46 42 30 30 32 32 34 32 31 30
7 2 0 2 6 8 12 11 17 15 5 1 6 9 9 5 9 16 13 16 11 12 14 15 19 23 24 31 34 36 37 39 41 45 44 43 37 32 32 35 36 35 34 32
5 7 6 1 12 8 8 7 5 6 2 4 9 11 16 21 24 21 23 23 21 19 11 12 12 9 18 25 31 33 36 38 40 42 43 43 41 40 39 41 37 37 37 37
4 8 6 10 3 5 8 2 2 5 6 15 14 8 6 12 23 25 27 22 25 22 19 15 14 11 18 24 31 35 38 40 42 42 43 43 41 43 38 41 38 41 40 39
3 2 17 10 6 0 3 1 6 8 13 8 5 8 16 19 18 15 17 17 16 19 21 19 16 12 18 22 30 36 36 39 43 44 43 42 41 40 39 42 42 41 40 40
4 5 7 10 4 5 3 8 4 3 6 11 10 12 12 16 22 28 16 20 25 28 18 13 8 10 19 26 31 37 42 45 46 44 42 41 44 45 41 41 40 41 42 41
3 3 6 6 3 13 3 1 2 3 5 7 6 9 16 22 20 21 25 19 25 25 23 12 12 13 21 25 30 35 39 41 43 47 43 40 40 41 40 41 44 42 43 42
2 3 3 9 18 9 5 6 2 3 8 11 13 14 16 18 34 30 25 22 26 24 17 13 13 8 15 21 27 34 37 39 43 46 42 39 39 42 41 40 42 43 43 43
3 2 4 8 7 5 2 4 9 10 12 18 12 9 19 22 24 30 29 25 21 14 14 13 12 11 8 14 20 30 37 41 40 41 39 37 38 40 40 39 42 44 43 43
10 2 6 10 13 15 19 20 16 14 9 14 14 21 23 24 31 37 27 22 18 12 12 14 13 12 10 14 14 22 29 35 39 40 40 38 38 40 40 40 41 43 43 42
5 5 6 10 17 19 19 23 21 14 19 11 15 21 21 24 28 29 22 15 14 12 13 14 15 13 11 9 11 17 23 30 37 36 37 37 36 37 37 37 39 41 41 41
2 9 5 13 17 15 13 17 22 16 13 10 13 17 16 23 27 19 17 20 14 15 15 16 17 15 11 9 10 9 21 26 34 34 31 33 34 35 36 36 38 39 40 39
7 7 2 22 6 7 11 8 4 12 13 2 9 14 17 24 30 20 25 21 20 17 15 18 19 16 10 14 12 4 13 24 28 28 29 31 34 34 34 36 36 36 37 37
14 9 5 12 3 11 8 4 12 16 7 1 12 13 12 16 23 14 18 20 24 22 21 19 17 17 20 16 13 4 10 20 24 24 28 29 31 31 33 33 33 33 35 37
14 9 5 5 6 13 9 9 4 5 17 2 9 14 14 11 16 13 20 17 17 17 17 16 23 23 22 17 15 6 5 14 17 20 25 28 30 29 32 30 31 32 32 32
6 13 8 2 5 9 9 9 8 8 11 8 7 10 11 10 12 11 18 19 17 20 24 25 27 24 25 26 17 5 3 7 13 21 25 30 30 31 30 31 31 33 34 33
5 4 14 14 11 9 7 11 0 2 7 7 9 13 10 4 6 13 15 17 19 21 28 31 29 24 26 27 19 4 1 3 12 26 30 30 31 32 33 32 32 31 30 30
3 5 6 2 3 17 10 8 7 6 5 11 16 13 11 9 10 10 11 13 13 16 25 29 26 27 29 30 23 14 11 8 7 22 27 28 29 27 28 30 29 30 30 30
10 10 10 8 9 11 18 17 17 18 15 20 16 15 11 9 7 9 9 10 10 13 18 24 23 25 29 30 26 18 20 10 7 16 21 25 27 28 29 28 28 28 29 27
10 18 15 20 23 23 22 24 18 15 16 15 17 15 13 9 6 8 7 8 9 13 15 20 23 23 26 31 29 25 25 13 2 12 20 23 26 27 28 26 29 29 27 25
17 18 22 22 24 22 24 21 21 19 17 10 12 10 8 7 7 5 6 7 8 13 16 18 17 19 22 28 28 32 32 21 7 6 11 19 25 26 26 26 27 25 27 32
16 22 14 18 17 17 25 17 11 12 12 9 9 7 8 6 7 4 5 5 9 12 15 15 17 19 24 24 26 32 34 28 18 10 5 11 18 21 24 25 18 22 29 31
Wind_Direction
11 64 38 2 30 287 261 273 295 289 287 325 313 295 288 286 277 282 281 278 274 266 256 254 232 221 211 212 207 205 199 202 200 203 203 199 200 200 198 197 193 190 186 182
57 53 1 352 5 5 351 310 307 305 337 326 309 286 286 275 266 258 264 264 264 273 268 253 230 219 207 203 205 205 201 201 201 204 204 198 200 201 201 197 193 193 190 187
78 185 359 6 354 6 346 329 329 310 322 259 298 279 274 292 259 263 249 256 254 256 261 260 224 217 208 204 202 202 202 202 200 199 199 196 199 201 201 199 196 195 193 190
69 321 4 351 1 8 329 355 322 313 325 317 44 292 300 261 264 267 277 259 267 259 253 253 235 218 213 208 204 202 202 199 197 197 195 194 193 186 199 201 197 196 195 194
313 325 346 348 347 3 276 295 302 289 280 299 210 251 272 321 301 305 302 276 261 252 240 242 237 219 212 207 204 202 199 198 194 195 198 195 196 194 198 201 199 197 196 197
314 290 144 301 330 312 286 306 287 276 242 255 255 210 282 306 329 316 322 316 289 284 250 243 241 225 214 209 203 200 198 197 192 195 197 196 196 192 187 194 197 197 197 198
337 327 344 253 339 311 350 356 339 355 14 233 275 275 261 292 276 284 283 290 291 291 280 269 251 224 211 204 202 202 197 198 195 194 195 198 196 199 194 194 191 191 196 199
55 337 359 325 262 273 307 192 178 295 309 294 297 260 251 295 291 286 289 287 287 282 278 259 252 244 218 209 202 200 199 199 197 198 196 198 196 200 196 198 192 194 196 199
1 235 308 303 318 330 342 236 256 269 265 269 244 262 284 274 285 316 306 305 309 303 291 267 255 241 231 219 206 202 201 202 198 198 195 194 193 195 193 201 201 196 199 201
268 299 275 317 294 255 33 304 333 329 295 290 297 307 300 299 312 314 323 328 318 314 311 293 265 257 242 229 218 209 203 199 198 198 195 192 192 198 197 198 198 198 200 202
204 179 290 337 283 298 307 325 257 264 252 307 313 299 279 303 319 327 320 321 309 301 299 299 291 277 270 255 228 214 206 200 196 195 194 189 189 190 192 195 202 201 201 203
310 212 274 281 289 284 177 308 78 343 307 279 271 264 290 331 326 316 309 320 299 288 297 299 295 274 284 263 231 209 201 201 197 193 192 189 184 186 189 191 196 201 201 204
307 271 328 338 347 344 25 265 305 302 275 266 274 283 336 316 321 312 304 302 306 296 312 310 302 295 293 278 235 209 197 197 193 190 188 187 184 183 186 187 193 199 201 203
294 256 190 270 272 286 293 291 293 289 283 284 266 295 319 324 324 321 304 300 289 303 320 318 315 315 314 301 252 211 200 193 190 187 186 185 184 182 184 186 190 193 199 196
165 253 245 250 269 279 277 284 289 284 271 268 308 315 323 325 323 322 327 302 295 324 333 333 325 321 314 315 276 217 198 188 190 189 186 186 183 180 181 181 185 188 193 196
304 266 264 271 278 284 283 282 279 264 270 279 307 309 336 319 334 325 349 327 341 333 336 340 328 323 321 320 315 230 192 182 188 190 185 180 176 176 175 178 181 185 188 191
247 264 271 279 267 322 285 248 257 301 289 296 315 318 325 339 334 330 349 338 337 350 343 350 331 328 324 331 332 300 180 175 183 187 174 173 171 171 170 177 178 181 181 184
245 237 244 275 35 263 250 246 292 284 284 280 315 310 314 326 326 330 341 336 344 343 356 347 332 328 326 339 353 297 184 184 181 174 166 165 168 165 167 174 177 179 180 180
224 245 257 248 223 275 295 273 241 276 301 174 284 297 313 324 321 337 345 328 331 341 346 347 336 333 334 351 346 357 188 175 180 158 161 162 164 162 166 172 176 177 176 178
208 220 223 151 236 255 288 261 260 307 288 211 301 296 308 324 330 335 321 318 334 344 343 355 344 351 353 343 343 339 32 160 156 149 156 163 166 166 170 174 177 179 180 179
302 314 235 237 257 262 250 257 285 208 251 335 328 302 293 281 263 288 304 318 336 346 347 350 354 360 353 347 355 347 352 61 165 166 170 172 175 176 176 176 177 177 176 176
250 291 278 300 262 274 230 268 190 230 316 309 311 287 278 266 285 288 302 319 335 332 346 347 353 358 360 358 7 10 19 347 176 165 163 167 172 172 172 171 170 172 171 171
256 248 268 232 268 306 303 283 288 287 286 292 294 285 270 278 285 306 315 320 326 333 331 343 353 357 1 1 3 358 352 352 183 174 170 170 173 175 172 166 166 164 169 171
256 256 260 268 268 273 270 278 277 279 275 277 284 280 278 278 288 298 314 324 328 332 337 347 352 352 359 358 360 0 4 4 159 183 179 176 173 172 173 171 170 168 170 170
271 282 269 267 274 275 270 265 267 272 275 271 275 259 266 288 287 289 316 325 330 330 345 349 349 350 351 357 359 4 10 21 37 150 182 179 179 174 170 173 173 174 178 178
267 265 265 266 270 272 276 277 274 266 268 261 273 272 266 254 275 300 306 326 333 336 344 350 351 358 346 353 2 6 14 22 30 50 121 174 171 166 165 166 163 182 189 189
Height
826 832 845 847 843 842 846 846 842 830 819 817 801 781 768 765 758 753 745 739 730 728 723 723 724 724 727 732 738 742 745 749 755 761 766 771 775 779 783 787 791 794 798 800
835 841 843 841 841 839 838 838 836 825 818 819 811 782 754 761 746 742 737 727 725 723 721 717 718 720 721 723 728 734 739 743 747 753 760 765 770 777 781 784 788 792 796 799
841 843 840 840 840 838 837 835 837 834 819 815 809 780 748 738 730 726 720 716 716 716 715 712 713 714 714 716 719 726 732 736 741 747 756 762 769 775 779 782 785 788 793 797
843 840 843 841 839 842 839 833 834 828 829 824 819 820 753 738 727 717 717 717 712 710 708 706 705 706 708 708 711 716 723 730 736 740 747 753 755 762 768 773 780 785 790 794
850 846 846 842 840 844 839 833 831 827 826 828 819 832 751 743 735 726 718 716 710 705 702 699 697 697 698 702 703 708 715 722 727 732 738 745 753 757 761 770 777 782 787 791
850 846 845 843 842 842 836 834 826 822 823 841 800 812 762 756 741 732 720 711 708 703 697 692 688 688 690 693 696 700 707 713 719 724 731 737 745 751 756 764 772 777 783 787
859 852 847 845 848 841 837 845 885 875 857 844 795 787 765 748 733 727 720 711 704 699 697 691 687 684 684 686 690 694 698 705 712 717 724 730 737 744 750 755 762 770 776 781
890 895 854 845 852 854 845 844 868 856 833 812 795 785 750 738 725 719 713 708 700 693 688 682 679 677 676 678 680 684 688 695 702 709 715 722 731 736 744 751 755 762 768 774
893 868 852 850 847 847 842 854 836 839 828 825 793 773 751 734 722 717 713 704 700 693 684 676 672 670 670 670 670 674 681 687 692 698 707 713 722 729 736 744 750 756 763 769
893 889 856 846 845 841 844 839 843 837 831 804 780 769 747 732 725 716 716 714 709 695 683 673 668 664 662 662 663 666 668 671 680 691 698 704 711 720 729 738 745 751 757 764
879 888 865 856 856 847 847 845 845 841 835 818 817 781 742 739 735 728 718 713 708 695 683 673 668 660 657 654 652 653 659 665 671 678 687 695 703 712 722 729 737 745 752 758
870 891 883 865 843 838 851 848 842 852 847 826 817 786 748 743 741 729 716 710 701 691 682 673 665 656 651 645 641 641 648 656 660 668 679 687 696 704 713 722 730 738 746 753
881 895 904 890 861 846 857 844 840 843 838 824 820 782 747 750 746 734 722 709 699 688 678 671 663 655 646 638 634 633 635 642 653 663 672 682 688 696 705 714 723 731 740 747
870 873 889 875 863 850 852 839 844 843 842 816 797 779 763 755 752 731 708 703 698 687 678 672 662 652 643 634 629 628 632 638 645 654 663 673 681 688 698 708 716 724 733 740
875 874 889 866 854 850 848 840 836 839 820 820 790 782 766 769 752 736 710 702 697 685 678 672 663 653 644 635 628 626 628 633 641 650 658 665 676 684 693 702 710 719 727 734
883 864 876 857 851 852 845 833 823 818 800 800 790 777 777 767 749 734 726 719 701 692 680 671 664 654 646 637 628 625 626 630 638 646 655 663 671 680 687 697 705 713 721 729
873 864 884 842 862 874 846 831 811 800 790 802 794 784 772 764 751 735 725 722 710 693 682 672 666 656 646 638 631 628 627 630 636 644 652 660 667 676 682 692 700 709 715 724
850 862 854 843 881 851 817 805 798 793 793 795 786 781 772 769 756 738 733 720 706 693 681 676 670 660 649 641 635 631 630 632 636 641 649 658 665 672 679 689 696 704 711 718
841 849 847 847 873 814 806 797 796 795 791 788 783 773 764 761 752 739 736 728 722 709 694 685 674 664 652 644 639 635 633 634 637 640 647 656 663 670 678 686 694 701 708 714
836 836 845 885 855 838 793 785 783 784 789 773 769 765 760 758 753 745 740 732 719 706 696 684 676 665 655 647 642 639 638 636 637 641 647 654 661 667 675 683 690 697 703 710
879 869 831 826 816 801 789 781 780 801 789 766 763 761 758 758 754 743 737 729 719 707 699 690 681 671 663 653 645 642 641 641 641 642 647 652 659 665 671 679 686 693 700 707
845 839 838 861 855 807 781 779 783 772 765 762 758 755 752 748 744 739 733 727 721 715 704 693 687 678 669 661 653 650 647 645 644 642 646 651 657 664 669 676 683 690 697 704
839 824 815 818 796 781 778 776 768 765 764 757 753 748 744 742 737 734 729 726 721 717 711 701 691 683 677 670 663 657 652 648 646 647 649 653 657 662 668 673 679 687 694 701
814 807 807 798 785 781 774 765 763 759 756 752 746 744 739 737 735 731 728 725 721 716 711 702 694 689 683 677 671 664 657 650 648 649 651 654 657 662 667 672 677 682 689 696
802 800 794 786 778 774 763 759 755 751 747 748 742 738 735 733 731 730 726 723 721 718 711 705 701 697 692 685 679 670 661 655 652 651 653 655 657 662 667 672 676 680 685 691
789 786 790 773 767 767 752 750 747 746 743 741 738 735 731 731 729 727 726 725 724 719 715 710 706 699 696 691 686 678 669 662 658 656 656 657 659 662 666 671 676 681 685 690